Weather History for Point Salines, Grenada

Change the Weather History Date:

Tuesday, April 8, 2014

  Actual Average Record
Temperature  
Mean Temperature 81 °F -  
Max Temperature 86 °F 84 °F 87 °F (1998)
Min Temperature 76 °F 76 °F 71 °F (1997)
Cooling Degree Days 16    
Growing Degree Days 31 (Base 50)    
Moisture  
Dew Point 74 °F    
Average Humidity 79    
Maximum Humidity 94    
Minimum Humidity 58    
Precipitation  
Precipitation 0.12 in - - ()
Sea Level Pressure  
Sea Level Pressure 29.98 in    
Wind  
Wind Speed 13 mph ()    
Max Wind Speed 23 mph    
Max Gust Speed 30 mph    
Visibility 7.3 miles    
Events Rain    
Averages and records for this station are not official NWS values.
T = Trace of Precipitation, MM = Missing Value Source: Averaged Metar Reports

Daily Weather History Graph

Daily Weather History Graph

Search for Another Location

Airport:

Trip Planner

Search our weather history database for the weather conditions in past years. The results will help you decide how hot, cold, wet, or windy it might be!

Date:

Astronomy

Apr. 08, 2014 Rise Set
Actual Time 5:59 AM AST 6:18 PM AST
Civil Twilight 5:38 AM AST 6:40 PM AST
Nautical Twilight 5:13 AM AST 7:04 PM AST
Astronomical Twilight 4:48 AM AST 7:29 PM AST
Moon 1:05 PM AST (4/8) 1:09 AM AST (4/8)
Length of Visible Light 13h 01m
Length of Day
12h 19m
Waxing Gibbous, 62% of the Moon is Illuminated
Apr 8
Waxing Gibbous
Apr 15
Full
Apr 22
Last Quarter
Apr 29
New
May 6
First Quarter

Hourly Weather History & Observations

Time (AST) Temp. Heat Index Dew Point Humidity Pressure Visibility Wind Dir Wind Speed Gust Speed Precip Events Conditions
12:00 AM 78.8 °F - 73.4 °F 83% 29.98 in 6.2 mi East 11.5 mph - N/A   Partly Cloudy
1:00 AM 78.8 °F - 73.4 °F 83% 29.98 in 6.2 mi East 9.2 mph - N/A   Scattered Clouds
2:00 AM 78 °F - 74 °F 84% 29.96 in 7 mi East 10.4 mph - - Rain Light Rain Showers
2:00 AM 78.8 °F - 73.4 °F 83% 29.95 in 6.2 mi East 10.4 mph - N/A Rain Light Rain Showers
3:00 AM 78.8 °F - 73.4 °F 83% 29.95 in 6.2 mi East 13.8 mph - N/A   Mostly Cloudy
4:00 AM 78.8 °F - 73.4 °F 83% 29.95 in 6.2 mi East 11.5 mph - N/A   Scattered Clouds
5:00 AM 78 °F - 73 °F 80% 29.96 in 11 mi East 11.5 mph - -   Widespread Dust
5:00 AM 78.8 °F - 73.4 °F 83% 29.95 in 6.2 mi East 11.5 mph - N/A   Partly Cloudy
6:00 AM 78.8 °F - 73.4 °F 83% 29.95 in 6.2 mi East 11.5 mph - N/A   Partly Cloudy
7:00 AM 78.8 °F - 73.4 °F 83% 29.98 in 6.2 mi East 11.5 mph - N/A   Partly Cloudy
8:00 AM 82 °F - 73 °F 67% 30.02 in 11 mi East 19.6 mph - -   Mostly Cloudy
8:00 AM 82.4 °F 88.2 °F 73.4 °F 74% 30.01 in 6.2 mi East 19.6 mph - N/A   Mostly Cloudy
9:00 AM 82.4 °F 88.2 °F 73.4 °F 74% 30.01 in 6.2 mi ESE 20.7 mph - N/A   Scattered Clouds
10:00 AM 84.2 °F 90.9 °F 73.4 °F 70% 30.04 in 6.2 mi ESE 20.7 mph - N/A   Scattered Clouds
11:00 AM 84 °F - 74 °F 65% 30.04 in 11 mi East 20.7 mph - -   Widespread Dust
11:00 AM 84.2 °F 90.9 °F 73.4 °F 70% 30.04 in 6.2 mi East 20.7 mph - N/A   Partly Cloudy
12:00 PM 86.0 °F 90.4 °F 69.8 °F 58% 30.01 in 6.2 mi ESE 13.8 mph - N/A   Partly Cloudy
1:00 PM 84.2 °F 90.9 °F 73.4 °F 70% 29.98 in 6.2 mi ESE 23.0 mph - N/A   Partly Cloudy
2:00 PM 85 °F - 72 °F 58% 29.97 in 16 mi ESE 21.9 mph - -   Partly Cloudy
2:00 PM 86.0 °F 93.4 °F 73.4 °F 66% 29.95 in 6.2 mi ESE 21.9 mph - N/A   Scattered Clouds
3:00 PM 84.2 °F 90.9 °F 73.4 °F 70% 29.95 in 6.2 mi ESE 20.7 mph - N/A   Scattered Clouds
4:00 PM 77.0 °F - 75.2 °F 94% 29.95 in 6.2 mi East 15.0 mph - N/A Rain Light Rain Showers
5:00 PM 80 °F - 75 °F 79% 29.96 in 9 mi East 18.4 mph - - Rain Light Rain Showers
5:00 PM 80.6 °F 86.2 °F 75.2 °F 84% 29.95 in 6.2 mi East 18.4 mph - N/A Rain Light Rain Showers
6:00 PM 77.0 °F - 75.2 °F 94% 29.98 in 6.2 mi ESE 20.7 mph - N/A Rain Light Rain Showers
7:00 PM 78.8 °F - 75.2 °F 89% 29.98 in 6.2 mi East 11.5 mph - N/A   Mostly Cloudy
8:00 PM 78 °F - 75 °F 89% 29.99 in 9 mi East 16.1 mph - -   Widespread Dust
8:00 PM 78.8 °F - 75.2 °F 89% 29.98 in 6.2 mi East 16.1 mph - N/A   Scattered Clouds
9:00 PM 78.8 °F - 75.2 °F 89% 30.01 in 6.2 mi East 13.8 mph 29.9 mph N/A   Partly Cloudy
10:00 PM 78.8 °F - 75.2 °F 89% 30.01 in 6.2 mi East 18.4 mph - N/A   Partly Cloudy
11:00 PM 79 °F - 74 °F 79% 30.02 in 10 mi East 13.8 mph - -   Widespread Dust
11:00 PM 78.8 °F - 73.4 °F 83% 30.01 in 6.2 mi East 13.8 mph - N/A   Scattered Clouds